Location: Coupvray
(48.8929°N, 2.7967°E)
Time: 21:25:53
(UTC+00:00)

Cosmos 1241 Rocket - Pass Details

Date: 02 November 2020
Orbit: 929 x 1018 km, 65.8° (Epoch: 30 November)

Event Time Altitude Azimuth Distance (km) Brightness Sun altitude
Rises 19:34:46 0° 301° (WNW) 3,706 8.6 -31.3°
Reaches altitude 10° 19:38:21 10° 321° (NW) 2,774 7.5 -31.8°
Maximum altitude 19:42:36 18° 2° (N) 2,274 6.5 -32.5°
Enters shadow 19:43:33 17° 12° (NNE) 2,306 6.4 -32.7°
